Location: Unspecified
(49.2170°N, 0.0000°E)
Time: 11:23:53
(UTC+00:00)

Transit 2A - Pass Details

Date: 23 June 2019
Orbit: 595 x 964 km, 66.7° (Epoch: 22 July)

Event Time Altitude Azimuth Distance (km) Brightness Sun altitude
Rises 10:17:50 0° 312° (NW) 3,405 9.0 57.1°
Reaches altitude 10° 10:21:33 10° 288° (WNW) 2,379 8.4 57.5°
Maximum altitude 10:24:16 14° 258° (WSW) 2,039 8.2 57.8°
Drops below altitude 10° 10:26:52 10° 228° (SW) 2,243 8.5 58.1°
Sets 10:30:12 0° 203° (SSW) 3,076 9.3 58.5°
